Total_Precipitation_Accumulation
0.04 0.03 0.00 0.00 0.00 0.00 0.00 0.00 0.00 0.00 0.00 0.00 0.00 0.00 0.00 0.00 0.00 0.00 0.03 0.02 0.02 0.03 0.04 0.04 0.03 0.01 0.00 0.00 0.02 0.07 0.12 0.14 0.20 0.28 0.26 0.23 0.19 0.11 0.05 0.02 0.03 0.02 0.00
0.06 0.06 0.03 0.01 0.00 0.00 0.00 0.00 0.00 0.00 0.00 0.00 0.00 0.00 0.00 0.00 0.00 0.00 0.02 0.04 0.02 0.02 0.03 0.04 0.04 0.04 0.03 0.02 0.03 0.09 0.14 0.15 0.16 0.23 0.29 0.32 0.33 0.23 0.17 0.12 0.09 0.07 0.03
0.09 0.09 0.05 0.03 0.00 0.00 0.00 0.00 0.00 0.00 0.00 0.00 0.00 0.00 0.00 0.00 0.00 0.00 0.00 0.03 0.05 0.02 0.03 0.06 0.08 0.06 0.07 0.06 0.04 0.07 0.11 0.13 0.17 0.21 0.27 0.31 0.32 0.33 0.29 0.22 0.19 0.17 0.13
0.08 0.11 0.08 0.05 0.04 0.02 0.01 0.01 0.00 0.00 0.00 0.00 0.01 0.00 0.00 0.00 0.00 0.00 0.00 0.01 0.04 0.05 0.06 0.07 0.11 0.12 0.12 0.10 0.06 0.06 0.09 0.11 0.14 0.18 0.19 0.16 0.15 0.17 0.17 0.19 0.22 0.24 0.23
0.10 0.15 0.18 0.14 0.11 0.07 0.04 0.02 0.00 0.00 0.00 0.01 0.01 0.01 0.01 0.00 0.00 0.00 0.00 0.00 0.01 0.01 0.05 0.05 0.05 0.08 0.13 0.16 0.11 0.06 0.06 0.08 0.09 0.09 0.08 0.06 0.06 0.07 0.10 0.14 0.17 0.20 0.20
0.27 0.31 0.38 0.34 0.24 0.18 0.15 0.09 0.05 0.03 0.01 0.01 0.00 0.00 0.01 0.00 0.00 0.00 0.00 0.00 0.01 0.00 0.00 0.01 0.03 0.03 0.05 0.13 0.17 0.07 0.05 0.05 0.04 0.05 0.04 0.04 0.03 0.04 0.06 0.08 0.10 0.12 0.12
0.41 0.50 0.61 0.62 0.55 0.43 0.36 0.30 0.23 0.21 0.12 0.02 0.03 0.04 0.02 0.01 0.00 0.00 0.00 0.00 0.00 0.00 0.00 0.00 0.02 0.06 0.09 0.10 0.12 0.07 0.07 0.07 0.06 0.07 0.05 0.03 0.03 0.02 0.03 0.03 0.04 0.06 0.07
0.49 0.54 0.64 0.67 0.60 0.55 0.48 0.39 0.37 0.41 0.28 0.11 0.13 0.18 0.12 0.09 0.03 0.00 0.00 0.00 0.00 0.00 0.00 0.00 0.00 0.02 0.06 0.12 0.05 0.02 0.03 0.06 0.06 0.04 0.03 0.02 0.02 0.01 0.01 0.01 0.01 0.02 0.03
0.73 0.68 0.68 0.71 0.68 0.69 0.63 0.51 0.45 0.45 0.39 0.27 0.20 0.28 0.24 0.19 0.15 0.05 0.01 0.01 0.01 0.00 0.00 0.00 0.01 0.01 0.01 0.03 0.02 0.01 0.02 0.03 0.04 0.03 0.02 0.01 0.01 0.00 0.00 0.01 0.02 0.03 0.03
1.15 1.05 0.96 0.92 0.79 0.71 0.63 0.53 0.45 0.44 0.47 0.42 0.34 0.27 0.23 0.19 0.22 0.18 0.07 0.02 0.01 0.01 0.00 0.00 0.00 0.02 0.02 0.00 0.00 0.00 0.01 0.01 0.03 0.03 0.02 0.01 0.01 0.01 0.01 0.02 0.02 0.03 0.02
1.79 1.65 1.46 1.19 0.97 0.82 0.72 0.65 0.58 0.53 0.51 0.46 0.38 0.28 0.22 0.20 0.14 0.16 0.17 0.11 0.05 0.02 0.01 0.00 0.00 0.00 0.01 0.00 0.00 0.00 0.00 0.01 0.02 0.04 0.03 0.02 0.02 0.02 0.01 0.01 0.02 0.02 0.02
1.69 1.62 1.43 1.14 0.88 0.72 0.67 0.68 0.67 0.63 0.58 0.50 0.38 0.29 0.25 0.21 0.17 0.19 0.19 0.24 0.26 0.10 0.02 0.02 0.01 0.00 0.00 0.00 0.00 0.00 0.01 0.01 0.02 0.03 0.03 0.02 0.02 0.02 0.02 0.01 0.01 0.01 0.01
1.05 1.06 1.00 0.88 0.75 0.66 0.64 0.69 0.71 0.69 0.62 0.52 0.41 0.33 0.31 0.28 0.29 0.30 0.22 0.22 0.27 0.18 0.08 0.04 0.05 0.04 0.02 0.01 0.01 0.01 0.01 0.02 0.02 0.03 0.02 0.01 0.01 0.02 0.03 0.04 0.02 0.01 0.01
0.74 0.75 0.81 0.78 0.71 0.65 0.61 0.60 0.61 0.62 0.57 0.49 0.42 0.36 0.30 0.25 0.29 0.26 0.23 0.23 0.19 0.20 0.17 0.07 0.05 0.07 0.05 0.03 0.02 0.02 0.01 0.04 0.04 0.03 0.02 0.01 0.01 0.01 0.02 0.03 0.05 0.03 0.02
0.46 0.55 0.68 0.73 0.70 0.66 0.63 0.61 0.64 0.59 0.53 0.47 0.39 0.31 0.27 0.24 0.24 0.27 0.32 0.28 0.21 0.18 0.20 0.16 0.11 0.06 0.07 0.05 0.04 0.01 0.01 0.04 0.07 0.04 0.03 0.01 0.01 0.00 0.00 0.01 0.02 0.02 0.02
0.44 0.50 0.51 0.51 0.51 0.55 0.56 0.59 0.65 0.64 0.55 0.47 0.39 0.30 0.25 0.22 0.23 0.24 0.27 0.29 0.26 0.22 0.21 0.20 0.17 0.13 0.15 0.13 0.13 0.07 0.04 0.03 0.05 0.05 0.03 0.02 0.01 0.00 0.00 0.00 0.00 0.01 0.01
0.27 0.32 0.30 0.29 0.36 0.42 0.40 0.43 0.47 0.52 0.52 0.48 0.38 0.28 0.21 0.16 0.16 0.16 0.19 0.22 0.24 0.24 0.17 0.20 0.17 0.15 0.21 0.22 0.22 0.16 0.11 0.07 0.06 0.05 0.03 0.01 0.01 0.00 0.00 0.00 0.00 0.00 0.00
0.15 0.20 0.21 0.20 0.26 0.37 0.39 0.42 0.43 0.40 0.39 0.36 0.28 0.22 0.18 0.15 0.13 0.10 0.11 0.14 0.20 0.22 0.18 0.15 0.16 0.15 0.18 0.22 0.26 0.25 0.21 0.17 0.14 0.16 0.13 0.06 0.03 0.02 0.01 0.01 0.01 0.00 0.00
0.11 0.15 0.16 0.18 0.22 0.30 0.38 0.40 0.41 0.33 0.28 0.24 0.19 0.16 0.13 0.12 0.11 0.10 0.10 0.12 0.17 0.18 0.21 0.16 0.16 0.18 0.16 0.16 0.20 0.20 0.22 0.25 0.24 0.26 0.31 0.21 0.13 0.10 0.08 0.05 0.04 0.03 0.02
0.13 0.11 0.11 0.13 0.22 0.32 0.38 0.41 0.39 0.31 0.24 0.20 0.18 0.16 0.13 0.11 0.10 0.12 0.13 0.20 0.25 0.30 0.30 0.25 0.23 0.24 0.22 0.19 0.17 0.21 0.27 0.29 0.30 0.28 0.30 0.33 0.29 0.21 0.17 0.15 0.15 0.12 0.10
0.11 0.08 0.05 0.07 0.15 0.21 0.24 0.36 0.34 0.27 0.24 0.19 0.17 0.19 0.17 0.11 0.07 0.07 0.06 0.11 0.16 0.26 0.31 0.31 0.31 0.32 0.29 0.23 0.19 0.24 0.26 0.33 0.33 0.29 0.28 0.30 0.32 0.27 0.25 0.22 0.21 0.21 0.20
0.09 0.07 0.05 0.05 0.07 0.08 0.13 0.19 0.24 0.29 0.31 0.27 0.22 0.24 0.21 0.13 0.10 0.07 0.03 0.03 0.04 0.08 0.14 0.18 0.22 0.27 0.32 0.34 0.33 0.33 0.32 0.32 0.34 0.37 0.35 0.39 0.38 0.34 0.32 0.26 0.24 0.28 0.28
0.03 0.03 0.03 0.04 0.03 0.03 0.03 0.06 0.14 0.27 0.36 0.32 0.25 0.28 0.32 0.25 0.21 0.17 0.13 0.08 0.06 0.05 0.03 0.06 0.13 0.20 0.23 0.25 0.28 0.30 0.30 0.32 0.35 0.37 0.29 0.27 0.27 0.25 0.26 0.25 0.23 0.25 0.29
0.02 0.02 0.04 0.06 0.03 0.01 0.01 0.01 0.05 0.17 0.26 0.27 0.24 0.27 0.37 0.35 0.32 0.25 0.22 0.22 0.17 0.13 0.08 0.04 0.08 0.12 0.11 0.15 0.19 0.23 0.22 0.17 0.15 0.12 0.10 0.12 0.15 0.16 0.16 0.15 0.14 0.13 0.15
0.01 0.02 0.02 0.04 0.03 0.02 0.01 0.01 0.03 0.10 0.16 0.18 0.18 0.23 0.30 0.35 0.34 0.29 0.20 0.20 0.21 0.19 0.15 0.12 0.07 0.06 0.04 0.04 0.08 0.15 0.20 0.19 0.15 0.13 0.10 0.08 0.08 0.09 0.09 0.09 0.08 0.08 0.07
0.01 0.01 0.00 0.00 0.00 0.00 0.01 0.01 0.00 0.01 0.02 0.04 0.06 0.13 0.21 0.21 0.22 0.20 0.15 0.23 0.32 0.20 0.16 0.19 0.17 0.13 0.12 0.13 0.17 0.18 0.21 0.24 0.25 0.27 0.26 0.21 0.18 0.15 0.15 0.12 0.07 0.05 0.05